m3post.com alexa rank chart, m3post.com alexa rank daily changes

m3post.com alexa rank chart, m3post.com alexa rank daily changes

m3post.com
Actual rank:
73 328

RANK HISTORY

Date Rank Diff
2017/07/24 73 328 +290
2017/07/23 73 038 -400
2017/07/22 73 438 +264
2017/07/21 73 174 -1 019
2017/07/20 74 193 +815
2017/07/19 73 378 +142
2017/07/18 73 236 +1 042
2017/07/17 72 194 +222
2017/07/16 71 972 -584
2017/07/15 72 556 +311
2017/07/14 72 245 -675
2017/07/13 72 920 +322
2017/07/12 72 598 -1 712
2017/07/11 74 310 -355
2017/07/10 74 665 -171
2017/07/09 74 836 -1 414
2017/07/08 76 250 +1 027
2017/07/07 75 223 +1 224
2017/07/06 73 999 +148
2017/07/05 73 851 +203
2017/07/04 73 648 +40
2017/07/03 73 608 -394
2017/07/02 74 002 -213
2017/07/01 74 215 +76
2017/06/30 74 139 -238
2017/06/29 74 377 +327
2017/06/28 74 050 -779
2017/06/27 74 829 +276
2017/06/26 74 553 +863
2017/06/25 73 690 +161
2017/06/24 73 529 -1 187
2017/06/23 74 716 +1 063
2017/06/22 73 653 +846
2017/06/21 72 807 -691
2017/06/20 73 498 -671
2017/06/19 74 169 +885
2017/06/18 73 284 -1 104
2017/06/17 74 388 -1 260
2017/06/16 75 648 -79
2017/06/15 75 727 +42
2017/06/14 75 685 -161
2017/06/13 75 846 -472
2017/06/12 76 318 +182
2017/06/11 76 136 +8
2017/06/10 76 128 -273
2017/06/09 76 401 +909
2017/06/08 75 492 -692
2017/06/07 76 184 -1 203
2017/06/06 77 387 -359
2017/06/05 77 746 +134
2017/06/04 77 612 +57
2017/06/03 77 555 +235
2017/06/02 77 320 +841
2017/06/01 76 479 -61
2017/05/31 76 540 +720
2017/05/30 75 820 +235
2017/05/29 75 585 +985
2017/05/28 74 600 +110
2017/05/27 74 490 -410
2017/05/26 74 900 -1 012
2017/05/25 75 912

WIDGET FOR YOUR SITE

DOMAINS WITH THE NEAREST RANK

Domain Rank
monabanq.com 73 323
vipnet.hr 73 324
relationshiptalk.net 73 325
education.govt.nz 73 326
mesbagages.com 73 327
m3post.com 73 328
isitnormal.com 73 329
blackhillsenergy.com 73 330
spaceone.io 73 331
alfredapp.com 73 332
yuanta.com.tw 73 333

DOMAINS WITH THE NEAREST RANK BY TLD .com

Domain Rank
imoforpcc.com 73 317
tokoyun.com 73 318
modsats.com 73 319
monabanq.com 73 323
mesbagages.com 73 327
m3post.com 73 328
isitnormal.com 73 329
blackhillsenergy.com 73 330
alfredapp.com 73 332
jeodrive.com 73 335
betvictor.com 73 336